Theta_e
311 312 312 311 310 308 308 309 308 307 303 301 299 298 298 297 296 295 291 290 289 289 289 289 289 289 291
312 312 310 309 309 307 307 308 305 302 301 299 298 298 298 297 295 291 289 290 290 289 289 289 289 288 289
311 311 310 309 308 307 306 303 301 299 298 298 298 298 298 293 289 289 289 289 289 289 289 288 288 288 288
310 310 309 308 305 304 302 301 299 298 298 297 296 294 290 289 289 289 289 289 288 288 288 288 288 287 287
309 308 306 304 305 304 301 299 298 297 296 295 291 289 289 289 289 289 289 289 288 288 287 287 287 287 287
306 305 305 304 303 302 300 298 296 295 291 289 289 289 289 288 288 288 288 288 287 286 286 286 286 286 286
306 304 303 302 302 299 297 296 293 289 289 289 289 288 288 288 288 287 287 286 286 286 286 286 285 285 285
302 301 301 300 297 295 292 289 289 289 289 289 289 288 288 288 288 287 287 286 286 286 286 285 285 285 285
297 297 294 292 290 289 290 290 290 290 290 289 289 289 289 290 289 287 287 286 285 285 284 284 284 284 284
291 290 290 290 292 293 291 290 291 290 289 289 289 289 289 289 288 288 288 287 286 286 285 285 284 284 284
293 295 295 292 290 290 290 290 290 289 289 289 289 288 287 287 288 288 287 287 286 286 286 285 284 283 283
295 293 292 291 290 290 290 290 290 290 289 289 289 288 287 287 287 287 286 286 286 286 285 284 283 283 282
291 291 290 290 290 290 290 290 289 289 289 289 288 287 286 285 285 286 285 286 285 285 283 283 283 283 282
291 290 290 290 290 290 289 289 288 288 289 288 288 287 287 286 284 285 285 284 285 284 282 282 282 282 282
290 290 290 289 289 289 288 288 287 286 287 287 286 286 286 286 286 286 285 284 283 282 281 282 282 282 281
289 289 288 288 287 287 286 286 286 285 285 285 285 285 285 285 284 284 283 283 282 281 281 280 281 281 281
288 288 287 287 287 286 286 285 285 285 285 285 285 285 284 283 283 282 281 281 281 280 280 280 280 281 281
Wind_Speed
26 30 28 25 28 28 27 21 22 23 21 22 24 23 22 22 22 22 21 20 20 20 19 19 20 20 19
30 23 25 22 24 27 24 24 22 20 21 21 21 21 21 21 21 21 20 19 19 19 19 20 20 20 20
25 26 25 23 24 25 24 20 20 20 20 20 21 21 19 20 19 19 19 19 19 18 18 18 20 21 20
25 26 25 23 22 22 19 20 20 19 19 19 18 17 17 17 18 18 18 18 18 17 19 20 22 22 21
19 22 22 19 19 19 21 18 18 18 16 16 17 16 16 16 16 17 17 17 17 18 21 22 23 23 22
16 17 13 14 16 19 17 17 15 14 14 15 14 13 13 14 15 16 17 18 19 21 24 24 22 21 24
13 13 10 9 12 16 16 14 12 9 7 8 10 10 11 13 15 17 19 21 23 23 24 19 19 25 27
11 9 11 11 11 10 10 10 8 7 6 7 8 9 11 14 17 18 18 17 16 17 17 20 29 30 30
11 11 12 12 11 9 9 7 4 4 5 7 7 11 13 13 13 10 10 15 14 17 21 26 28 32 34
15 14 14 13 11 9 7 5 2 2 2 6 9 11 10 10 6 16 15 18 17 20 25 27 29 32 35
14 11 10 9 8 7 6 3 2 2 5 8 12 15 14 17 19 19 19 19 23 25 26 26 25 27 30
9 8 7 7 6 5 2 2 3 6 9 11 15 17 20 24 25 24 24 24 26 28 27 32 32 29 28
5 2 3 4 3 4 5 5 7 9 12 13 15 18 21 23 26 28 31 31 28 29 33 33 32 29 31
2 2 4 5 6 8 9 11 13 14 14 16 17 20 22 25 26 30 28 32 32 33 35 34 32 32 32
5 6 7 9 11 13 15 17 18 19 19 19 21 24 25 27 29 30 29 31 32 32 33 35 33 32 32
10 11 12 14 16 18 20 21 22 22 22 22 25 28 29 30 30 29 32 32 33 32 31 33 35 30 29
15 16 17 19 20 22 23 23 24 24 23 23 27 27 28 33 36 30 29 36 34 34 30 30 35 35 31
Wind_Direction
251 260 240 240 235 227 232 246 250 251 249 249 252 257 264 270 274 276 274 273 273 272 276 276 277 276 275
252 241 231 230 237 233 235 242 245 247 253 255 258 262 265 268 270 271 272 277 276 272 269 272 274 273 275
251 241 225 227 228 227 229 234 244 248 251 257 260 260 261 262 263 266 266 267 271 274 274 276 276 279 280
233 239 235 222 220 222 223 235 243 249 255 258 257 260 263 266 268 271 273 275 276 277 278 278 280 283 278
238 227 210 203 218 224 228 232 241 250 253 254 257 262 265 265 267 270 271 275 277 279 282 285 285 282 282
205 192 202 217 224 221 223 230 238 244 243 249 258 260 263 270 270 275 280 279 280 282 281 282 282 281 284
239 220 210 203 204 211 215 218 223 236 243 251 267 271 273 276 278 283 285 284 282 280 279 275 281 291 289
181 201 202 198 187 194 196 200 214 233 256 275 282 286 289 293 292 290 289 288 287 288 280 275 291 294 292
173 163 159 156 159 165 170 179 207 258 282 293 299 302 302 299 292 297 306 306 303 296 288 290 295 294 292
138 138 137 142 150 158 167 176 203 273 265 298 311 315 317 305 283 310 308 308 308 306 303 301 298 294 293
127 135 141 147 153 161 169 175 217 280 312 317 315 316 308 301 304 306 305 304 306 303 304 305 303 298 296
137 143 156 166 169 169 193 251 301 319 320 320 316 312 307 305 306 308 306 307 309 309 310 308 304 298 292
150 161 173 180 202 245 260 274 291 301 309 314 316 313 311 306 306 309 311 314 313 313 311 306 304 301 299
274 261 242 254 266 275 281 287 289 290 297 307 313 315 314 310 304 306 309 306 311 312 310 307 307 305 306
287 281 282 285 288 289 289 290 290 292 295 304 310 311 312 311 304 306 306 305 313 315 309 306 305 306 307
285 287 289 288 286 287 290 291 291 295 298 299 300 306 308 308 307 310 310 313 313 309 309 309 308 310 314
287 287 287 288 289 290 290 290 290 290 291 297 301 305 306 302 306 307 310 316 313 311 314 314 310 315 318